Regional Weather Roundup
Issued by NWS Cleveland, OH

Home | Current Version | Previous Version | Text Only | Print | Product List | Glossary Off
Versions: 1 2 3 4 5 6 7 8 9 10 11 12 13 14 15 16 17 18 19 20 21 22 23 24 25 26 27 28 29 30 31 32 33 34 35 36 37 38 39 40 41 42 43 44 45 46 47 48 49 50

000
ASUS41 KCLE 252310
RWRCLE
OHIO REGIONAL WEATHER ROUNDUP
NATIONAL WEATHER SERVICE WILMINGTON, OH
700 PM EDT FRI JUL 25 2014

NOTE: "FAIR" INDICATES FEW OR NO CLOUDS BELOW 12,000 FEET WITH NO
SIGNIFICANT WEATHER AND/OR OBSTRUCTIONS TO VISIBILITY.

OHZ001>008-015>018-024>027-034-035-043-044-260000-
   NORTHWEST OHIO

CITY           SKY/WX    TMP DP  RH WIND       PRES   REMARKS
DEFIANCE       CLOUDY    73  55  53 SW8       29.99F
FINDLAY        CLOUDY    74  54  49 SW5       30.00R
TOLEDO EXPRESS CLOUDY    73  55  53 SW8       29.99S
TOLEDO METCALF CLOUDY    75  54  47 SW10      29.99S
LIMA           CLOUDY    73  54  51 SW6       30.02R
$$

OHZ009>014-019>023-028>033-038-089-260000-
   NORTHEAST OHIO

CITY           SKY/WX    TMP DP  RH WIND       PRES   REMARKS
CLE-HOPKINS    PTSUNNY   72  53  51 N9        30.01F
CLE-LAKEFRONT  PTSUNNY   72  54  53 N5        29.98F
CUY CO. ARPT   NOT AVBL
LORAIN-ELYRIA  MOSUNNY   78  53  41 W7        30.00S
ASHTABULA      PTSUNNY   70  53  54 VRB5      30.01F
AKRON-CANTON   MOSUNNY   74  51  44 SW5       30.01F
WOOSTER        MOSUNNY   75  55  49 SW7       30.01F
MANSFIELD      SUNNY     73  54  51 SW8       30.02S
YOUNGSTOWN     PTSUNNY   73  52  47 SW6       30.01F
$$

OHZ042-051>053-060>062-070>072-077>081-260000-
  SOUTHWEST OHIO

CITY           SKY/WX    TMP DP  RH WIND       PRES   REMARKS
CINC-COVINGTON CLOUDY    75  58  55 CALM      30.01F
CINC-LUNKEN    CLOUDY    75  57  53 SW7       30.01R
HAMILTON       CLOUDY    75  60  59 W3        30.02R
DAYTON         CLOUDY    74  57  55 SW7       30.03R
WRIGHT-PAT AFB CLOUDY    74  57  55 W3        30.02R
DAYTON GENERAL   N/A     74  58  57 W7        30.02R
WILMINGTON     PTSUNNY   73  59  61 S6        30.02R
$$

OHZ036-037-039>041-045>050-054>059-063>069-073>076-082>088-260000-
  CENTRAL AND SOUTHEAST OHIO

CITY           SKY/WX    TMP DP  RH WIND       PRES   REMARKS
COLUMBUS       CLOUDY    78  55  44 SW9       30.00S
OSU AIRPORT    PTSUNNY   74  56  53 S9        30.00F
BOLTON FIELD   SUNNY     73  61  64 SW3       30.01F
RICKENBACK AFB PTSUNNY   77  52  42 SW6       30.01S
NEWARK         MOSUNNY   74  55  51 SW6       30.00F
MARION         PTSUNNY   73  55  53 SW8       30.01S
LANCASTER      MOSUNNY   74  58  57 VRB3      30.02S
ZANESVILLE     SUNNY     75  55  49 SW3       30.01F
NEW PHILLY     SUNNY     75  57  53 MISG      30.02F
$$



USA.gov is the U.S. government's official web portal to all federal, state and local government web resources and services.